Tuolumne River Below Confluence with Cherry Creek [ USA-CAL ]

Edit Gauge

Current Conditions

Reading of "n/a" = frozen gauge or gauge error.
Reading Trend Type Updated
2040 cfs 10 cfs/hr Flow 00h41m

Station Description

AW Gauge ID: 43519
Source: virtual
Station: 10553
Enabled yes
Description:Combination of Cherry Creek below Holm Powerhouse and flow in Tuolumne below Early Intake diversion dam.
Calculation:$flow=(0.000000)+(1.000000*($gauge[4651]->getValue(GMETRIC_FLOW,0)))+(1.000000*($gauge[4655]->getValue(GMETRIC_FLOW,0)));
Data is courtesy of AW's Stream Team program. This data is calculated based on other gauges and information provided by the Stream Team. This data, and any river data, should be used with caution.

Information

Gauge History

Times listed in GMT 24h, ET and PT hours provided for convenience Graphs in GMT. Readings of "n/a" constitute a frozen gauge or gauge error.
Reading Updated (GMT) Eastern Pacific Comment
2040.00 02/21/2019 03:41:52 Feb 20 10:41 pm Feb 20 7:41 pm
2030.00 02/21/2019 02:42:08 Feb 20 09:42 pm Feb 20 6:42 pm
2050.00 02/21/2019 01:42:24 Feb 20 08:42 pm Feb 20 5:42 pm
2020.00 02/21/2019 00:42:40 Feb 20 07:42 pm Feb 20 4:42 pm
2040.00 02/20/2019 23:40:48 Feb 20 06:40 pm Feb 20 3:40 pm
2040.00 02/20/2019 22:41:04 Feb 20 05:41 pm Feb 20 2:41 pm
2020.00 02/20/2019 21:41:20 Feb 20 04:41 pm Feb 20 1:41 pm
2030.00 02/20/2019 20:41:36 Feb 20 03:41 pm Feb 20 12:41 pm
2070.00 02/20/2019 19:41:52 Feb 20 02:41 pm Feb 20 11:41 am
2030.00 02/20/2019 18:42:08 Feb 20 01:42 pm Feb 20 10:42 am
2070.00 02/20/2019 17:42:24 Feb 20 12:42 pm Feb 20 9:42 am
2030.00 02/20/2019 16:42:40 Feb 20 11:42 am Feb 20 8:42 am
2010.00 02/20/2019 15:40:48 Feb 20 10:40 am Feb 20 7:40 am
2030.00 02/20/2019 14:41:04 Feb 20 09:41 am Feb 20 6:41 am
2050.00 02/20/2019 13:41:20 Feb 20 08:41 am Feb 20 5:41 am
2050.00 02/20/2019 12:41:36 Feb 20 07:41 am Feb 20 4:41 am
2050.00 02/20/2019 11:41:52 Feb 20 06:41 am Feb 20 3:41 am
2040.00 02/20/2019 10:42:08 Feb 20 05:42 am Feb 20 2:42 am
2010.00 02/20/2019 09:42:24 Feb 20 04:42 am Feb 20 1:42 am
2020.00 02/20/2019 08:42:40 Feb 20 03:42 am Feb 20 12:42 am
2050.00 02/20/2019 07:40:48 Feb 20 02:40 am Feb 19 11:40 pm
2020.00 02/20/2019 06:41:04 Feb 20 01:41 am Feb 19 10:41 pm
2050.00 02/20/2019 05:41:20 Feb 20 12:41 am Feb 19 9:41 pm
2080.00 02/20/2019 04:41:36 Feb 19 11:41 pm Feb 19 8:41 pm
2080.00 02/20/2019 03:41:52 Feb 19 10:41 pm Feb 19 7:41 pm
2050.00 02/20/2019 02:42:08 Feb 19 09:42 pm Feb 19 6:42 pm
2060.00 02/20/2019 01:42:24 Feb 19 08:42 pm Feb 19 5:42 pm
2080.00 02/20/2019 00:42:40 Feb 19 07:42 pm Feb 19 4:42 pm
2050.00 02/19/2019 23:40:48 Feb 19 06:40 pm Feb 19 3:40 pm
2060.00 02/19/2019 22:41:04 Feb 19 05:41 pm Feb 19 2:41 pm
2060.00 02/19/2019 21:41:20 Feb 19 04:41 pm Feb 19 1:41 pm
2060.00 02/19/2019 20:41:36 Feb 19 03:41 pm Feb 19 12:41 pm
2090.00 02/19/2019 19:41:52 Feb 19 02:41 pm Feb 19 11:41 am
2080.00 02/19/2019 18:42:08 Feb 19 01:42 pm Feb 19 10:42 am
2050.00 02/19/2019 17:42:24 Feb 19 12:42 pm Feb 19 9:42 am
2040.00 02/19/2019 16:42:40 Feb 19 11:42 am Feb 19 8:42 am
2392.00 02/19/2019 15:40:48 Feb 19 10:40 am Feb 19 7:40 am
2382.00 02/19/2019 14:41:04 Feb 19 09:41 am Feb 19 6:41 am
2392.00 02/19/2019 13:41:20 Feb 19 08:41 am Feb 19 5:41 am
2382.00 02/19/2019 12:41:36 Feb 19 07:41 am Feb 19 4:41 am
2382.00 02/19/2019 11:41:52 Feb 19 06:41 am Feb 19 3:41 am
2402.00 02/19/2019 10:42:08 Feb 19 05:42 am Feb 19 2:42 am
2352.00 02/19/2019 09:42:24 Feb 19 04:42 am Feb 19 1:42 am
2392.00 02/19/2019 08:42:40 Feb 19 03:42 am Feb 19 12:42 am
2412.00 02/19/2019 07:40:48 Feb 19 02:40 am Feb 18 11:40 pm
2392.00 02/19/2019 06:41:04 Feb 19 01:41 am Feb 18 10:41 pm
2392.00 02/19/2019 05:41:20 Feb 19 12:41 am Feb 18 9:41 pm
2422.00 02/19/2019 04:41:36 Feb 18 11:41 pm Feb 18 8:41 pm
2412.00 02/19/2019 03:41:52 Feb 18 10:41 pm Feb 18 7:41 pm
2382.00 02/19/2019 02:42:08 Feb 18 09:42 pm Feb 18 6:42 pm
2402.00 02/19/2019 01:42:24 Feb 18 08:42 pm Feb 18 5:42 pm
2422.00 02/19/2019 00:42:40 Feb 18 07:42 pm Feb 18 4:42 pm
2362.00 02/18/2019 23:40:48 Feb 18 06:40 pm Feb 18 3:40 pm
2292.00 02/18/2019 22:41:04 Feb 18 05:41 pm Feb 18 2:41 pm
2252.00 02/18/2019 21:41:20 Feb 18 04:41 pm Feb 18 1:41 pm
2292.00 02/18/2019 20:41:36 Feb 18 03:41 pm Feb 18 12:41 pm
2242.00 02/18/2019 19:41:52 Feb 18 02:41 pm Feb 18 11:41 am
2292.00 02/18/2019 18:42:08 Feb 18 01:42 pm Feb 18 10:42 am
2312.00 02/18/2019 17:42:24 Feb 18 12:42 pm Feb 18 9:42 am
2282.00 02/18/2019 16:42:40 Feb 18 11:42 am Feb 18 8:42 am
2302.00 02/18/2019 16:27:44 Feb 18 11:27 am Feb 18 8:27 am
2321.00 02/18/2019 15:40:48 Feb 18 10:40 am Feb 18 7:40 am
2321.00 02/18/2019 14:41:04 Feb 18 09:41 am Feb 18 6:41 am
2351.00 02/18/2019 13:41:20 Feb 18 08:41 am Feb 18 5:41 am
2301.00 02/18/2019 12:41:36 Feb 18 07:41 am Feb 18 4:41 am
2351.00 02/18/2019 11:41:52 Feb 18 06:41 am Feb 18 3:41 am
2341.00 02/18/2019 10:42:08 Feb 18 05:42 am Feb 18 2:42 am
2381.00 02/18/2019 09:42:24 Feb 18 04:42 am Feb 18 1:42 am
2371.00 02/18/2019 08:42:40 Feb 18 03:42 am Feb 18 12:42 am
2391.00 02/18/2019 07:40:48 Feb 18 02:40 am Feb 17 11:40 pm
2391.00 02/18/2019 06:41:04 Feb 18 01:41 am Feb 17 10:41 pm
2411.00 02/18/2019 05:41:20 Feb 18 12:41 am Feb 17 9:41 pm
2080.00 02/18/2019 05:26:24 Feb 18 12:26 am Feb 17 9:26 pm
2080.00 02/18/2019 04:41:36 Feb 17 11:41 pm Feb 17 8:41 pm
2110.00 02/18/2019 03:41:52 Feb 17 10:41 pm Feb 17 7:41 pm
2100.00 02/18/2019 02:42:08 Feb 17 09:42 pm Feb 17 6:42 pm
2120.00 02/18/2019 01:42:24 Feb 17 08:42 pm Feb 17 5:42 pm
2120.00 02/18/2019 00:42:40 Feb 17 07:42 pm Feb 17 4:42 pm
1880.00 02/17/2019 23:40:48 Feb 17 06:40 pm Feb 17 3:40 pm
1860.00 02/17/2019 22:41:04 Feb 17 05:41 pm Feb 17 2:41 pm
1890.00 02/17/2019 21:41:20 Feb 17 04:41 pm Feb 17 1:41 pm
1880.00 02/17/2019 20:41:36 Feb 17 03:41 pm Feb 17 12:41 pm
1890.00 02/17/2019 19:41:52 Feb 17 02:41 pm Feb 17 11:41 am
1900.00 02/17/2019 18:42:08 Feb 17 01:42 pm Feb 17 10:42 am
1970.00 02/17/2019 17:42:24 Feb 17 12:42 pm Feb 17 9:42 am
1940.00 02/17/2019 15:40:48 Feb 17 10:40 am Feb 17 7:40 am
2000.00 02/17/2019 14:41:04 Feb 17 09:41 am Feb 17 6:41 am
1970.00 02/17/2019 13:41:20 Feb 17 08:41 am Feb 17 5:41 am
2020.00 02/17/2019 12:41:36 Feb 17 07:41 am Feb 17 4:41 am
2030.00 02/17/2019 11:41:52 Feb 17 06:41 am Feb 17 3:41 am
2040.00 02/17/2019 10:42:08 Feb 17 05:42 am Feb 17 2:42 am
2050.00 02/17/2019 09:42:24 Feb 17 04:42 am Feb 17 1:42 am
2060.00 02/17/2019 08:42:40 Feb 17 03:42 am Feb 17 12:42 am
2100.00 02/17/2019 07:40:48 Feb 17 02:40 am Feb 16 11:40 pm
2100.00 02/17/2019 06:41:04 Feb 17 01:41 am Feb 16 10:41 pm
2140.00 02/17/2019 05:41:20 Feb 17 12:41 am Feb 16 9:41 pm
2130.00 02/17/2019 04:41:36 Feb 16 11:41 pm Feb 16 8:41 pm
2160.00 02/17/2019 03:41:52 Feb 16 10:41 pm Feb 16 7:41 pm
2200.00 02/17/2019 02:42:08 Feb 16 09:42 pm Feb 16 6:42 pm
2250.00 02/17/2019 01:42:24 Feb 16 08:42 pm Feb 16 5:42 pm
2240.00 02/17/2019 00:42:40 Feb 16 07:42 pm Feb 16 4:42 pm
2230.00 02/16/2019 23:40:48 Feb 16 06:40 pm Feb 16 3:40 pm
2230.00 02/16/2019 22:41:04 Feb 16 05:41 pm Feb 16 2:41 pm
2170.00 02/16/2019 21:41:20 Feb 16 04:41 pm Feb 16 1:41 pm
1810.00 02/16/2019 20:41:36 Feb 16 03:41 pm Feb 16 12:41 pm
1810.00 02/16/2019 19:41:52 Feb 16 02:41 pm Feb 16 11:41 am
1870.00 02/16/2019 18:42:08 Feb 16 01:42 pm Feb 16 10:42 am
1850.00 02/16/2019 17:42:24 Feb 16 12:42 pm Feb 16 9:42 am
1900.00 02/16/2019 16:42:40 Feb 16 11:42 am Feb 16 8:42 am
1930.00 02/16/2019 15:40:48 Feb 16 10:40 am Feb 16 7:40 am
1960.00 02/16/2019 14:41:04 Feb 16 09:41 am Feb 16 6:41 am
2020.00 02/16/2019 13:41:20 Feb 16 08:41 am Feb 16 5:41 am
2050.00 02/16/2019 12:41:36 Feb 16 07:41 am Feb 16 4:41 am
2070.00 02/16/2019 11:41:52 Feb 16 06:41 am Feb 16 3:41 am
2110.00 02/16/2019 10:42:08 Feb 16 05:42 am Feb 16 2:42 am
2160.00 02/16/2019 09:42:24 Feb 16 04:42 am Feb 16 1:42 am
2190.00 02/16/2019 08:42:40 Feb 16 03:42 am Feb 16 12:42 am
2230.00 02/16/2019 07:40:48 Feb 16 02:40 am Feb 15 11:40 pm
2300.00 02/16/2019 06:41:04 Feb 16 01:41 am Feb 15 10:41 pm
2370.00 02/16/2019 05:41:20 Feb 16 12:41 am Feb 15 9:41 pm
2370.00 02/16/2019 04:41:36 Feb 15 11:41 pm Feb 15 8:41 pm
2440.00 02/16/2019 03:41:52 Feb 15 10:41 pm Feb 15 7:41 pm
2530.00 02/16/2019 02:42:08 Feb 15 09:42 pm Feb 15 6:42 pm
2560.00 02/16/2019 01:42:24 Feb 15 08:42 pm Feb 15 5:42 pm
2630.00 02/16/2019 00:42:40 Feb 15 07:42 pm Feb 15 4:42 pm
4240.00 02/15/2019 23:40:48 Feb 15 06:40 pm Feb 15 3:40 pm
4240.00 02/15/2019 22:41:04 Feb 15 05:41 pm Feb 15 2:41 pm
4330.00 02/15/2019 21:41:20 Feb 15 04:41 pm Feb 15 1:41 pm
4420.00 02/15/2019 20:41:36 Feb 15 03:41 pm Feb 15 12:41 pm
4420.00 02/15/2019 19:41:52 Feb 15 02:41 pm Feb 15 11:41 am
4520.00 02/15/2019 18:42:08 Feb 15 01:42 pm Feb 15 10:42 am
4540.00 02/15/2019 17:42:24 Feb 15 12:42 pm Feb 15 9:42 am
4550.00 02/15/2019 16:42:40 Feb 15 11:42 am Feb 15 8:42 am
4630.00 02/15/2019 15:40:48 Feb 15 10:40 am Feb 15 7:40 am
4630.00 02/15/2019 14:41:04 Feb 15 09:41 am Feb 15 6:41 am
4720.00 02/15/2019 13:41:20 Feb 15 08:41 am Feb 15 5:41 am
4660.00 02/15/2019 12:41:36 Feb 15 07:41 am Feb 15 4:41 am
3140.00 02/15/2019 11:41:52 Feb 15 06:41 am Feb 15 3:41 am
3150.00 02/15/2019 10:42:08 Feb 15 05:42 am Feb 15 2:42 am
3110.00 02/15/2019 09:42:24 Feb 15 04:42 am Feb 15 1:42 am
3190.00 02/15/2019 08:42:40 Feb 15 03:42 am Feb 15 12:42 am
3260.00 02/15/2019 07:40:48 Feb 15 02:40 am Feb 14 11:40 pm
3240.00 02/15/2019 06:41:04 Feb 15 01:41 am Feb 14 10:41 pm
3190.00 02/15/2019 05:41:20 Feb 15 12:41 am Feb 14 9:41 pm
3290.00 02/15/2019 04:41:36 Feb 14 11:41 pm Feb 14 8:41 pm
3200.00 02/15/2019 03:41:52 Feb 14 10:41 pm Feb 14 7:41 pm
3280.00 02/15/2019 02:42:08 Feb 14 09:42 pm Feb 14 6:42 pm
3250.00 02/15/2019 01:42:24 Feb 14 08:42 pm Feb 14 5:42 pm
3210.00 02/15/2019 00:42:40 Feb 14 07:42 pm Feb 14 4:42 pm
4720.00 02/15/2019 00:27:44 Feb 14 07:27 pm Feb 14 4:27 pm
3180.00 02/14/2019 23:40:48 Feb 14 06:40 pm Feb 14 3:40 pm
3010.00 02/14/2019 22:41:04 Feb 14 05:41 pm Feb 14 2:41 pm
2700.00 02/14/2019 21:41:20 Feb 14 04:41 pm Feb 14 1:41 pm
2410.00 02/14/2019 20:41:36 Feb 14 03:41 pm Feb 14 12:41 pm
2090.00 02/14/2019 19:41:52 Feb 14 02:41 pm Feb 14 11:41 am
1990.00 02/14/2019 18:42:08 Feb 14 01:42 pm Feb 14 10:42 am
1910.00 02/14/2019 17:42:24 Feb 14 12:42 pm Feb 14 9:42 am
1870.00 02/14/2019 16:42:40 Feb 14 11:42 am Feb 14 8:42 am
1770.00 02/14/2019 15:40:48 Feb 14 10:40 am Feb 14 7:40 am
1620.00 02/14/2019 14:41:04 Feb 14 09:41 am Feb 14 6:41 am
1420.00 02/14/2019 13:41:20 Feb 14 08:41 am Feb 14 5:41 am
1270.00 02/14/2019 12:41:36 Feb 14 07:41 am Feb 14 4:41 am
1270.00 02/14/2019 11:41:52 Feb 14 06:41 am Feb 14 3:41 am
1230.00 02/14/2019 10:42:08 Feb 14 05:42 am Feb 14 2:42 am
1190.00 02/14/2019 09:42:24 Feb 14 04:42 am Feb 14 1:42 am
1180.00 02/14/2019 08:42:40 Feb 14 03:42 am Feb 14 12:42 am
1150.00 02/14/2019 07:40:48 Feb 14 02:40 am Feb 13 11:40 pm
1150.00 02/14/2019 06:41:04 Feb 14 01:41 am Feb 13 10:41 pm
1140.00 02/14/2019 05:41:20 Feb 14 12:41 am Feb 13 9:41 pm
1120.00 02/14/2019 04:41:36 Feb 13 11:41 pm Feb 13 8:41 pm
1070.00 02/14/2019 03:41:52 Feb 13 10:41 pm Feb 13 7:41 pm
1020.00 02/14/2019 02:42:08 Feb 13 09:42 pm Feb 13 6:42 pm
1000.00 02/14/2019 01:42:24 Feb 13 08:42 pm Feb 13 5:42 pm
982.00 02/14/2019 00:42:40 Feb 13 07:42 pm Feb 13 4:42 pm
988.00 02/13/2019 23:40:48 Feb 13 06:40 pm Feb 13 3:40 pm
1590.00 02/13/2019 21:41:20 Feb 13 04:41 pm Feb 13 1:41 pm
1860.00 02/13/2019 20:41:36 Feb 13 03:41 pm Feb 13 12:41 pm
1850.00 02/13/2019 19:41:52 Feb 13 02:41 pm Feb 13 11:41 am
1830.00 02/13/2019 18:42:08 Feb 13 01:42 pm Feb 13 10:42 am
1960.00 02/13/2019 17:42:24 Feb 13 12:42 pm Feb 13 9:42 am
4160.00 02/13/2019 16:42:40 Feb 13 11:42 am Feb 13 8:42 am
4180.00 02/13/2019 15:40:48 Feb 13 10:40 am Feb 13 7:40 am
4070.00 02/13/2019 14:41:04 Feb 13 09:41 am Feb 13 6:41 am
4000.00 02/13/2019 13:41:20 Feb 13 08:41 am Feb 13 5:41 am
4080.00 02/13/2019 12:41:36 Feb 13 07:41 am Feb 13 4:41 am
4070.00 02/13/2019 11:41:52 Feb 13 06:41 am Feb 13 3:41 am
3970.00 02/13/2019 10:42:08 Feb 13 05:42 am Feb 13 2:42 am
4110.00 02/13/2019 09:42:24 Feb 13 04:42 am Feb 13 1:42 am
4010.00 02/13/2019 08:42:40 Feb 13 03:42 am Feb 13 12:42 am
4110.00 02/13/2019 07:40:48 Feb 13 02:40 am Feb 12 11:40 pm
4140.00 02/13/2019 06:41:04 Feb 13 01:41 am Feb 12 10:41 pm
4100.00 02/13/2019 05:41:20 Feb 13 12:41 am Feb 12 9:41 pm
4010.00 02/13/2019 04:41:36 Feb 12 11:41 pm Feb 12 8:41 pm
4030.00 02/13/2019 03:41:52 Feb 12 10:41 pm Feb 12 7:41 pm
4080.00 02/13/2019 02:42:08 Feb 12 09:42 pm Feb 12 6:42 pm
4100.00 02/13/2019 01:42:24 Feb 12 08:42 pm Feb 12 5:42 pm
4050.00 02/13/2019 00:42:40 Feb 12 07:42 pm Feb 12 4:42 pm
4040.00 02/12/2019 23:40:48 Feb 12 06:40 pm Feb 12 3:40 pm
4315.00 02/12/2019 22:41:04 Feb 12 05:41 pm Feb 12 2:41 pm
4275.00 02/12/2019 21:41:20 Feb 12 04:41 pm Feb 12 1:41 pm
4245.00 02/12/2019 20:41:36 Feb 12 03:41 pm Feb 12 12:41 pm
4335.00 02/12/2019 19:41:52 Feb 12 02:41 pm Feb 12 11:41 am
4305.00 02/12/2019 18:42:08 Feb 12 01:42 pm Feb 12 10:42 am
4365.00 02/12/2019 17:42:24 Feb 12 12:42 pm Feb 12 9:42 am
4385.00 02/12/2019 16:42:40 Feb 12 11:42 am Feb 12 8:42 am
4305.00 02/12/2019 15:40:48 Feb 12 10:40 am Feb 12 7:40 am
4365.00 02/12/2019 14:41:04 Feb 12 09:41 am Feb 12 6:41 am
4375.00 02/12/2019 13:41:20 Feb 12 08:41 am Feb 12 5:41 am
4255.00 02/12/2019 12:41:36 Feb 12 07:41 am Feb 12 4:41 am
4285.00 02/12/2019 11:41:52 Feb 12 06:41 am Feb 12 3:41 am
4365.00 02/12/2019 10:42:08 Feb 12 05:42 am Feb 12 2:42 am
4375.00 02/12/2019 09:42:24 Feb 12 04:42 am Feb 12 1:42 am
4275.00 02/12/2019 08:42:40 Feb 12 03:42 am Feb 12 12:42 am
4415.00 02/12/2019 07:40:48 Feb 12 02:40 am Feb 11 11:40 pm
4255.00 02/12/2019 06:41:04 Feb 12 01:41 am Feb 11 10:41 pm
4435.00 02/12/2019 05:41:20 Feb 12 12:41 am Feb 11 9:41 pm
4365.00 02/12/2019 04:41:36 Feb 11 11:41 pm Feb 11 8:41 pm
4475.00 02/12/2019 03:41:52 Feb 11 10:41 pm Feb 11 7:41 pm
4335.00 02/12/2019 02:42:08 Feb 11 09:42 pm Feb 11 6:42 pm
4405.00 02/12/2019 01:42:24 Feb 11 08:42 pm Feb 11 5:42 pm
4405.00 02/12/2019 00:42:40 Feb 11 07:42 pm Feb 11 4:42 pm
4435.00 02/11/2019 23:40:48 Feb 11 06:40 pm Feb 11 3:40 pm
2125.00 02/11/2019 23:25:52 Feb 11 06:25 pm Feb 11 3:25 pm
2125.00 02/11/2019 22:41:04 Feb 11 05:41 pm Feb 11 2:41 pm
2105.00 02/11/2019 22:26:08 Feb 11 05:26 pm Feb 11 2:26 pm
2105.00 02/11/2019 21:41:20 Feb 11 04:41 pm Feb 11 1:41 pm
1917.00 02/11/2019 21:26:24 Feb 11 04:26 pm Feb 11 1:26 pm
1917.00 02/11/2019 20:41:36 Feb 11 03:41 pm Feb 11 12:41 pm
1867.00 02/11/2019 20:26:40 Feb 11 03:26 pm Feb 11 12:26 pm
1867.00 02/11/2019 19:41:52 Feb 11 02:41 pm Feb 11 11:41 am
1360.00 02/11/2019 19:26:56 Feb 11 02:26 pm Feb 11 11:26 am
1360.00 02/11/2019 18:42:08 Feb 11 01:42 pm Feb 11 10:42 am
1365.00 02/11/2019 18:27:12 Feb 11 01:27 pm Feb 11 10:27 am
1365.00 02/11/2019 17:42:24 Feb 11 12:42 pm Feb 11 9:42 am
1363.00 02/11/2019 17:27:28 Feb 11 12:27 pm Feb 11 9:27 am
1363.00 02/11/2019 16:42:40 Feb 11 11:42 am Feb 11 8:42 am
1373.00 02/11/2019 16:27:44 Feb 11 11:27 am Feb 11 8:27 am
1375.00 02/11/2019 15:40:48 Feb 11 10:40 am Feb 11 7:40 am
1348.00 02/11/2019 15:25:52 Feb 11 10:25 am Feb 11 7:25 am
1348.00 02/11/2019 14:41:04 Feb 11 09:41 am Feb 11 6:41 am
1384.00 02/11/2019 14:26:08 Feb 11 09:26 am Feb 11 6:26 am
1384.00 02/11/2019 13:41:20 Feb 11 08:41 am Feb 11 5:41 am
1374.00 02/11/2019 13:26:24 Feb 11 08:26 am Feb 11 5:26 am
1374.00 02/11/2019 12:41:36 Feb 11 07:41 am Feb 11 4:41 am
1379.00 02/11/2019 12:26:40 Feb 11 07:26 am Feb 11 4:26 am
1379.00 02/11/2019 11:41:52 Feb 11 06:41 am Feb 11 3:41 am
1379.00 02/11/2019 11:26:56 Feb 11 06:26 am Feb 11 3:26 am
1379.00 02/11/2019 10:42:08 Feb 11 05:42 am Feb 11 2:42 am
1379.00 02/11/2019 10:27:12 Feb 11 05:27 am Feb 11 2:27 am
1379.00 02/11/2019 09:42:24 Feb 11 04:42 am Feb 11 1:42 am
1388.00 02/11/2019 09:27:28 Feb 11 04:27 am Feb 11 1:27 am
1388.00 02/11/2019 08:42:40 Feb 11 03:42 am Feb 11 12:42 am
1398.00 02/11/2019 08:27:44 Feb 11 03:27 am Feb 11 12:27 am
1398.00 02/11/2019 07:40:48 Feb 11 02:40 am Feb 10 11:40 pm
1404.00 02/11/2019 07:25:52 Feb 11 02:25 am Feb 10 11:25 pm
1404.00 02/11/2019 06:41:04 Feb 11 01:41 am Feb 10 10:41 pm
1403.00 02/11/2019 06:26:08 Feb 11 01:26 am Feb 10 10:26 pm
1403.00 02/11/2019 05:41:20 Feb 11 12:41 am Feb 10 9:41 pm
1413.00 02/11/2019 05:26:24 Feb 11 12:26 am Feb 10 9:26 pm
1413.00 02/11/2019 04:41:36 Feb 10 11:41 pm Feb 10 8:41 pm
1429.00 02/11/2019 04:26:40 Feb 10 11:26 pm Feb 10 8:26 pm
1429.00 02/11/2019 03:41:52 Feb 10 10:41 pm Feb 10 7:41 pm
1432.00 02/11/2019 03:26:56 Feb 10 10:26 pm Feb 10 7:26 pm
1432.00 02/11/2019 02:42:08 Feb 10 09:42 pm Feb 10 6:42 pm
1425.00 02/11/2019 02:27:12 Feb 10 09:27 pm Feb 10 6:27 pm
1425.00 02/11/2019 01:42:24 Feb 10 08:42 pm Feb 10 5:42 pm
1445.00 02/11/2019 01:27:28 Feb 10 08:27 pm Feb 10 5:27 pm
1442.00 02/11/2019 00:42:40 Feb 10 07:42 pm Feb 10 4:42 pm
1442.00 02/11/2019 00:27:44 Feb 10 07:27 pm Feb 10 4:27 pm
1445.00 02/10/2019 23:40:48 Feb 10 06:40 pm Feb 10 3:40 pm
1445.00 02/10/2019 23:25:52 Feb 10 06:25 pm Feb 10 3:25 pm
1445.00 02/10/2019 22:41:04 Feb 10 05:41 pm Feb 10 2:41 pm
1452.00 02/10/2019 22:26:08 Feb 10 05:26 pm Feb 10 2:26 pm
1452.00 02/10/2019 21:41:20 Feb 10 04:41 pm Feb 10 1:41 pm
1442.00 02/10/2019 21:26:24 Feb 10 04:26 pm Feb 10 1:26 pm
1442.00 02/10/2019 20:41:36 Feb 10 03:41 pm Feb 10 12:41 pm
1471.00 02/10/2019 20:26:40 Feb 10 03:26 pm Feb 10 12:26 pm
1471.00 02/10/2019 19:41:52 Feb 10 02:41 pm Feb 10 11:41 am
1498.00 02/10/2019 19:26:56 Feb 10 02:26 pm Feb 10 11:26 am
1498.00 02/10/2019 18:42:08 Feb 10 01:42 pm Feb 10 10:42 am
1495.00 02/10/2019 18:27:12 Feb 10 01:27 pm Feb 10 10:27 am
1495.00 02/10/2019 17:42:24 Feb 10 12:42 pm Feb 10 9:42 am
1529.00 02/10/2019 17:27:28 Feb 10 12:27 pm Feb 10 9:27 am
1529.00 02/10/2019 16:27:44 Feb 10 11:27 am Feb 10 8:27 am
1525.00 02/10/2019 15:40:48 Feb 10 10:40 am Feb 10 7:40 am
1545.00 02/10/2019 15:25:52 Feb 10 10:25 am Feb 10 7:25 am
1545.00 02/10/2019 14:41:04 Feb 10 09:41 am Feb 10 6:41 am
1498.00 02/10/2019 14:26:08 Feb 10 09:26 am Feb 10 6:26 am
1498.00 02/10/2019 13:41:20 Feb 10 08:41 am Feb 10 5:41 am
1495.00 02/10/2019 13:26:24 Feb 10 08:26 am Feb 10 5:26 am
1495.00 02/10/2019 12:41:36 Feb 10 07:41 am Feb 10 4:41 am
1479.00 02/10/2019 12:26:40 Feb 10 07:26 am Feb 10 4:26 am
1479.00 02/10/2019 11:41:52 Feb 10 06:41 am Feb 10 3:41 am
1477.00 02/10/2019 11:26:56 Feb 10 06:26 am Feb 10 3:26 am
1477.00 02/10/2019 10:42:08 Feb 10 05:42 am Feb 10 2:42 am
1468.00 02/10/2019 10:27:12 Feb 10 05:27 am Feb 10 2:27 am
1468.00 02/10/2019 09:42:24 Feb 10 04:42 am Feb 10 1:42 am
1449.00 02/10/2019 09:27:28 Feb 10 04:27 am Feb 10 1:27 am
1449.00 02/10/2019 08:42:40 Feb 10 03:42 am Feb 10 12:42 am
1449.00 02/10/2019 08:27:44 Feb 10 03:27 am Feb 10 12:27 am

Reports give the public a chance to report on river conditions throughout the country as well as log the history of a river.

When River/Gauge Subject Level Reporter
5y199d05h23m /Tuolumne River Below Confluence with Cherry Creek [CA] Raft in center route at Stern's 1200 cfs Paul Martzen

Linked Reaches

River Name/Section Class Level   Updated
Tuolumne [CA] 3) Cherry Creek to Meral's Pool IV-V+ 2040 cfs
+ 10 cfs/hr
R6-
Runnable

00h41m
Tuolumne [CA] 4) Lumsden Campground (Merals Pool) to Wards Ferry Bridge IV 2040 cfs
+ 10 cfs/hr
R1-
Lower Runnable

00h41m

Associated Gauges

Disclaimer Data Sources

CHERRY C BL DION R HOLM PH NR MATHER CA (AW#4655)

2040 cfs 00h39m

CHERRY C BL DION R HOLM PH NR MATHER CA (AW#4655)

9.91 ft 00h39m

TUOLUMNE R BL EARLY INTAKE NR MATHER CA (AW#4651)

312 cfs 59h53m

TUOLUMNE R BL EARLY INTAKE NR MATHER CA (AW#4651)

4.32 ft 59h53m